Waarnemingen

Advertentie
Mijn weer
Gueret-St Laurent, Frankrijk (7361): temperatuur & dauwpunt: 18.01.2018 09:00:00 - 24.01.2018 09:00:00 (CET)Gueret-St Laurent, Frankrijk (7361): temperatuur 5cm: 18.01.2018 09:00:00 - 24.01.2018 09:00:00 (CET)Gueret-St Laurent, Frankrijk (7361): temperatuur -20cm & temperatuur -100cm: 18.01.2018 09:00:00 - 24.01.2018 09:00:00 (CET)Gueret-St Laurent, Frankrijk (7361): windsnelheid & windstoten: 18.01.2018 09:00:00 - 24.01.2018 09:00:00 (CET)Gueret-St Laurent, Frankrijk (7361): windrichting: 18.01.2018 09:00:00 - 24.01.2018 09:00:00 (CET)Gueret-St Laurent, Frankrijk (7361): luchtdruk: 18.01.2018 09:00:00 - 24.01.2018 09:00:00 (CET)Gueret-St Laurent, Frankrijk (7361): zicht: 18.01.2018 09:00:00 - 24.01.2018 09:00:00 (CET)Gueret-St Laurent, Frankrijk (7361): Zonneschijnduur: 18.01.2018 09:00:00 - 24.01.2018 09:00:00 (CET)Gueret-St Laurent, Frankrijk (7361): neerslag: 18.01.2018 09:00:00 - 24.01.2018 09:00:00 (CET)
Datum & Tijd tt [°C] td [°C] tt 5cm [°C] tt -20cm [°C] tt -100cm [°C] ff [km/u] ff [kn] fx [km/u] fx [kn] dd ppp [hPa] vv [km] sd [min] rr [mm]
24.01.2018 09:00:00 - - - - - - - - - - - - - -
24.01.2018 08:00:00 4,2 3,6 2,4 8,5 8,8 7 4 14 7 OZO 1026,2 20 0 0,0
24.01.2018 07:00:00 5,2 4,6 4,1 8,5 8,8 7 4 9 5 O 1026,6 20 0 0,0
24.01.2018 06:00:00 5,4 5,0 4,0 8,5 8,8 5 3 10 5 O 1027,0 20 0 0,0
24.01.2018 05:00:00 4,7 3,8 3,5 8,5 8,8 5 3 10 5 O 1027,5 17 0 0,0
24.01.2018 04:00:00 5,8 5,2 2,7 8,5 8,8 8 4 13 7 OZO 1027,6 20 0 0,0
24.01.2018 03:00:00 6,6 5,4 4,6 8,5 8,7 7 4 12 6 OZO 1027,6 20 0 0,0
24.01.2018 02:00:00 8,4 6,4 6,5 8,5 8,8 5 3 18 10 O 1027,6 20 0 0,0
24.01.2018 01:00:00 9,3 7,1 8,6 8,5 8,8 8 5 19 10 Z 1028,4 20 0 0,0
24.01.2018 00:00:00 9,6 7,0 8,0 8,5 8,8 7 4 17 9 Z 1028,8 20 0 0,0
23.01.2018 23:00:00 9,1 7,2 7,2 8,5 8,7 5 3 17 9 Z 1028,8 20 0 0,0
23.01.2018 22:00:00 8,9 7,0 7,2 8,5 8,8 10 5 18 10 Z 1029,0 20 0 0,0
23.01.2018 21:00:00 9,6 7,5 8,8 8,4 8,7 9 5 19 10 ZZW 1028,8 20 0 0,0
23.01.2018 20:00:00 9,2 7,6 8,4 8,4 8,7 8 4 14 7 ZZW 1028,8 20 0 0,0
23.01.2018 19:00:00 9,0 7,8 8,5 8,4 8,7 7 4 20 11 ZZW 1028,7 12 0 0,0
23.01.2018 18:00:00 9,0 7,3 8,5 8,3 8,7 14 7 22 12 ZZW 1028,1 20 1 0,0
23.01.2018 17:00:00 9,6 7,5 10,0 8,4 8,7 7 4 23 12 ZZW 1028,1 19 36 0,0
23.01.2018 16:00:00 11,2 7,5 11,3 8,4 8,7 7 4 20 11 ZW 1027,5 20 42 0,0
23.01.2018 15:00:00 10,9 7,2 11,0 8,4 8,7 8 5 20 11 ZZW 1027,2 20 7 0,0
23.01.2018 14:00:00 9,8 6,9 9,8 8,4 8,7 10 5 17 9 Z 1027,6 20 0 0,0
23.01.2018 13:00:00 9,0 5,9 9,2 8,4 8,7 8 5 18 10 Z 1028,3 20 0 0,0
23.01.2018 12:00:00 8,8 5,2 9,5 8,4 8,7 7 4 21 12 Z 1028,6 20 9 0,0
23.01.2018 11:00:00 8,3 4,9 8,6 8,5 8,7 8 4 20 11 Z 1028,6 20 14 0,0
23.01.2018 10:00:00 7,5 4,8 3,9 8,5 8,7 8 4 16 8 ZZW 1028,5 20 52 0,0
23.01.2018 09:00:00 4,3 3,7 0,2 8,6 8,7 3 2 15 8 ZO 1028,9 20 10 0,0
23.01.2018 08:00:00 3,6 3,0 0,1 8,5 8,6 5 3 9 5 ZO 1028,5 20 0 0,0
23.01.2018 07:00:00 4,1 2,8 0,8 8,6 8,7 3 2 8 5 ZO 1028,0 18 0 0,0
23.01.2018 06:00:00 5,7 3,7 2,8 8,6 8,7 3 2 9 5 ZZW 1027,8 20 0 0,0
23.01.2018 05:00:00 7,2 4,8 6,2 8,6 8,6 3 1 11 6 W 1027,5 20 0 0,0
23.01.2018 04:00:00 7,4 5,0 6,5 8,6 8,6 7 4 18 10 ZW 1027,4 20 0 0,0
23.01.2018 03:00:00 7,4 5,2 5,3 8,6 8,6 7 4 14 8 WZW 1026,9 20 0 0,0
23.01.2018 02:00:00 7,9 6,0 7,1 8,6 8,6 4 2 14 8 WZW 1026,7 20 0 0,0
23.01.2018 01:00:00 7,3 6,1 6,5 8,6 8,6 4 2 9 5 ZZW 1027,0 20 0 0,0
23.01.2018 00:00:00 7,0 5,6 6,2 8,6 8,7 3 1 6 3 ONO 1027,3 20 0 0,0
22.01.2018 23:00:00 7,6 5,4 6,5 8,6 8,6 0 0 11 6 N 1026,7 20 0 0,0
22.01.2018 22:00:00 8,0 5,1 7,1 8,6 8,6 6 3 21 11 W 1026,5 20 0 0,0
22.01.2018 21:00:00 8,2 5,8 7,6 8,6 8,6 6 4 21 11 W 1025,6 20 0 0,0
22.01.2018 20:00:00 8,4 6,2 7,6 8,5 8,6 9 5 33 18 WNW 1024,5 20 0 0,0
22.01.2018 19:00:00 8,5 7,1 8,0 8,5 8,6 15 8 36 20 WNW 1022,9 20 0 0,2
22.01.2018 18:00:00 8,4 7,5 8,1 8,5 8,6 15 8 37 20 W 1021,7 6 0 0,2
22.01.2018 17:00:00 9,2 8,0 8,8 8,4 8,6 17 9 46 25 W 1020,2 5 0 0,8
22.01.2018 16:00:00 10,1 8,5 9,7 8,3 8,6 20 11 50 27 W 1018,5 9 0 0,6
22.01.2018 15:00:00 10,9 7,6 10,2 8,3 8,6 19 10 61 33 WZW 1017,0 10 17 0,0
22.01.2018 14:00:00 12,4 8,3 11,4 8,3 8,6 24 13 67 36 W 1016,7 20 23 1,0
22.01.2018 13:00:00 11,7 9,9 10,7 8,3 8,6 16 9 56 30 WZW 1017,0 5 3 0,4
22.01.2018 12:00:00 11,1 9,4 10,8 8,3 8,6 19 11 48 26 ZW 1017,5 4,5 12 0,4
22.01.2018 11:00:00 11,3 8,7 10,2 8,2 8,6 19 10 54 29 ZW 1018,0 20 4 0,0
22.01.2018 10:00:00 10,6 8,5 9,9 8,2 8,6 16 9 39 21 ZW 1018,4 9 0 0,0
22.01.2018 09:00:00 10,5 8,8 9,6 8,2 8,6 10 6 36 19 WZW 1018,7 18 0 0,0
22.01.2018 08:00:00 10,2 9,0 9,6 8,1 8,6 10 5 38 20 WZW 1019,3 5 0 0,0
22.01.2018 07:00:00 10,4 9,2 9,7 8,1 8,6 14 8 45 24 WZW 1019,5 5 0 0,2
22.01.2018 06:00:00 10,4 9,0 9,7 8,2 8,6 15 8 39 21 WZW 1019,5 9 0 0,0
22.01.2018 05:00:00 10,7 8,8 10,1 8,1 8,6 16 9 46 25 WZW 1019,3 14 0 0,0
22.01.2018 04:00:00 10,7 8,8 9,8 8,1 8,6 17 9 44 24 WZW 1019,2 17 0 0,0
22.01.2018 03:00:00 10,6 8,9 9,6 8,1 8,6 16 9 41 22 WZW 1019,7 13 0 0,0
22.01.2018 02:00:00 10,1 8,9 9,3 8,1 8,6 13 7 41 22 WZW 1019,7 8 0 0,0
22.01.2018 01:00:00 10,0 8,3 9,1 8,0 8,6 14 8 46 25 WZW 1020,1 8 0 0,0
22.01.2018 00:00:00 9,8 8,2 9,1 8,0 8,6 12 7 40 22 W 1020,4 11 0 0,2
21.01.2018 23:00:00 9,8 8,1 9,0 8,0 8,6 19 11 46 25 W 1020,4 19 0 0,0
21.01.2018 22:00:00 10,2 8,5 9,5 7,9 8,6 14 8 53 29 WZW 1020,2 9 0 0,0
21.01.2018 21:00:00 10,4 8,3 9,6 7,9 8,6 18 10 43 23 W 1020,2 20 0 0,0
21.01.2018 20:00:00 10,6 9,4 10,0 7,9 8,6 13 7 40 22 WZW 1019,7 7 0 0,0
21.01.2018 19:00:00 10,9 9,3 10,2 7,8 8,6 15 8 42 23 WZW 1019,7 12 0 0,0
21.01.2018 18:00:00 10,8 9,4 10,2 7,8 8,6 16 8 43 23 W 1019,6 16 0 0,2
21.01.2018 17:00:00 10,9 9,8 10,5 7,8 8,6 13 7 36 20 WZW 1019,2 7 0 0,0
21.01.2018 16:00:00 11,0 9,7 10,7 7,8 8,6 13 7 35 19 W 1019,2 8 0 0,0
21.01.2018 15:00:00 11,1 10,0 11,0 7,8 8,6 15 8 31 17 W 1018,9 6 0 0,0
21.01.2018 14:00:00 10,6 10,3 8,6 7,7 8,6 10 5 21 11 W 1018,8 12 0 0,0
21.01.2018 13:00:00 7,9 7,5 7,7 7,7 8,6 5 3 9 5 O 1019,8 4,5 0 0,4
21.01.2018 12:00:00 7,5 6,8 7,5 7,7 8,6 5 3 9 5 O 1020,4 12 0 0,4
21.01.2018 11:00:00 7,1 6,4 7,0 7,7 8,6 6 4 9 5 Z 1020,1 16 0 0,6
21.01.2018 10:00:00 7,0 6,3 6,7 7,7 8,6 2 1 7 4 ZW 1020,2 2,9 0 1,6
21.01.2018 09:00:00 6,9 6,0 6,6 7,7 8,6 4 2 20 11 W 1019,5 3,5 0 0,6
21.01.2018 08:00:00 7,4 5,7 6,7 7,7 8,6 9 5 23 12 W 1019,0 3,9 0 0,6
21.01.2018 07:00:00 8,6 5,0 7,9 7,7 8,6 8 5 23 13 W 1017,9 20 0 0,0
21.01.2018 06:00:00 9,1 5,5 8,6 7,6 8,6 12 7 34 18 WNW 1017,4 20 0 0,0
21.01.2018 05:00:00 9,3 6,0 8,7 7,6 8,7 14 8 40 22 W 1017,0 20 0 0,0
21.01.2018 04:00:00 9,8 6,3 9,3 7,6 8,6 20 11 54 29 W 1016,2 20 0 0,0
21.01.2018 03:00:00 10,3 7,2 9,5 7,5 8,7 19 10 57 31 W 1015,3 20 0 0,0
21.01.2018 02:00:00 10,6 7,3 9,7 7,5 8,7 23 12 59 32 W 1014,1 20 0 0,0
21.01.2018 01:00:00 10,4 7,3 9,3 7,4 8,7 17 9 55 30 W 1013,4 20 0 0,0
21.01.2018 00:00:00 10,6 7,8 9,6 7,4 8,7 22 12 56 31 W 1012,9 20 0 0,0
20.01.2018 23:00:00 10,6 8,9 9,8 7,4 8,7 20 11 52 28 W 1011,7 20 0 0,2
20.01.2018 22:00:00 10,7 9,6 10,1 7,3 8,7 19 10 45 24 W 1011,2 7 0 0,6
20.01.2018 21:00:00 11,0 9,6 10,3 7,2 8,7 21 11 46 25 W 1010,3 4,6 0 0,2
20.01.2018 20:00:00 11,0 9,7 10,3 7,2 8,7 17 9 44 24 WZW 1009,8 3,6 0 1,2
20.01.2018 19:00:00 11,1 9,8 10,2 7,2 8,8 19 11 43 23 W 1009,3 9 0 0,6
20.01.2018 18:00:00 11,0 9,6 10,2 7,1 8,8 16 9 47 25 W 1009,3 10 0 0,4
20.01.2018 17:00:00 11,2 9,6 10,5 7,1 8,8 19 10 60 33 W 1008,5 9 0 0,2
20.01.2018 16:00:00 11,3 10,0 10,8 7,2 8,8 20 11 55 30 W 1007,7 4,3 0 1,2
20.01.2018 15:00:00 11,4 10,1 10,7 7,1 8,8 22 12 47 25 W 1006,9 3,6 0 0,8
20.01.2018 14:00:00 10,7 9,9 8,6 7,2 8,8 16 8 43 23 WZW 1006,8 3,9 0 1,0
20.01.2018 13:00:00 8,7 7,3 7,3 7,2 8,8 16 9 59 32 ZW 1007,3 5 0 3,1
20.01.2018 12:00:00 8,0 6,3 6,5 7,2 8,8 21 12 72 39 ZW 1008,1 7 0 3,6
20.01.2018 11:00:00 7,0 5,3 5,1 7,3 8,8 27 15 62 33 ZZW 1009,1 8 0 3,2
20.01.2018 10:00:00 5,9 3,9 4,3 7,4 8,8 27 15 50 27 Z 1009,8 9 0 4,1
20.01.2018 09:00:00 5,1 3,1 3,7 7,4 8,8 18 10 40 22 ZZW 1013,0 9 0 1,8
20.01.2018 08:00:00 4,6 2,5 3,8 7,4 8,8 21 11 40 21 ZZW 1014,9 12 0 1,6
20.01.2018 07:00:00 4,7 2,7 3,7 7,5 8,8 16 8 36 19 ZZW 1016,2 7 0 0,6
20.01.2018 06:00:00 4,4 2,7 3,5 7,5 8,8 8 5 23 12 ZZW 1017,4 11 0 0,4
20.01.2018 05:00:00 4,4 2,3 3,6 7,5 8,8 10 5 26 14 ZW 1018,4 12 0 0,2
20.01.2018 04:00:00 4,8 2,3 3,9 7,6 8,8 11 6 29 16 ZW 1019,3 20 0 0,0
20.01.2018 03:00:00 4,5 2,0 3,1 7,6 8,8 7 4 23 12 ZW 1020,0 20 0 0,0
20.01.2018 02:00:00 4,2 0,9 2,9 7,6 8,8 8 4 26 14 ZW 1020,2 20 0 0,0
20.01.2018 01:00:00 4,5 1,7 3,5 7,7 8,8 12 6 29 15 WZW 1020,7 20 0 0,0
20.01.2018 00:00:00 4,6 2,1 3,7 7,7 8,8 11 6 32 17 W 1020,9 20 0 0,0
19.01.2018 23:00:00 4,4 2,7 2,8 7,7 8,8 7 4 22 12 W 1020,8 20 0 0,0
19.01.2018 22:00:00 4,2 2,4 2,6 7,7 8,8 6 3 15 8 WZW 1020,5 20 0 0,0
19.01.2018 21:00:00 3,9 2,1 1,4 7,7 8,8 6 3 17 9 WZW 1020,2 20 0 0,0
19.01.2018 20:00:00 4,0 1,9 1,9 7,7 8,8 6 4 15 8 WZW 1019,6 20 0 0,0
19.01.2018 19:00:00 4,5 1,9 2,7 7,7 8,8 6 3 28 15 W 1018,9 20 0 0,0
19.01.2018 18:00:00 5,8 1,9 4,6 7,7 8,8 8 5 29 15 W 1018,3 20 10 0,0
19.01.2018 17:00:00 6,5 2,4 6,0 7,7 8,8 9 5 32 17 W 1017,4 20 0 0,0
19.01.2018 16:00:00 7,5 3,0 7,7 7,7 8,8 14 7 32 17 W 1016,9 20 17 0,0
19.01.2018 15:00:00 7,8 3,6 6,6 7,7 8,8 11 6 30 16 WZW 1016,7 20 18 0,0
19.01.2018 14:00:00 7,3 3,2 7,0 7,7 8,8 12 6 30 16 WZW 1017,1 15 0 0,0
19.01.2018 13:00:00 7,7 3,2 7,8 7,7 8,8 10 5 24 13 WZW 1017,4 20 4 0,0
19.01.2018 12:00:00 6,9 1,2 7,9 7,7 8,8 10 5 26 14 WZW 1018,3 20 33 0,0
19.01.2018 11:00:00 6,9 2,2 6,1 7,7 8,8 11 6 26 14 WZW 1018,4 19 41 0,0
19.01.2018 10:00:00 5,9 3,2 3,8 7,8 8,8 9 5 26 14 WZW 1018,4 20 46 0,0
19.01.2018 09:00:00 4,5 3,3 1,3 7,8 8,8 8 4 18 10 WZW 1017,9 20 6 0,0
19.01.2018 08:00:00 4,0 2,8 1,7 7,8 8,8 4 2 15 8 W 1017,7 20 0 0,0
19.01.2018 07:00:00 4,8 3,8 3,8 7,8 8,8 6 4 14 8 WZW 1017,2 20 0 0,0
19.01.2018 06:00:00 5,1 3,6 4,5 7,8 8,8 4 2 17 9 W 1017,1 14 0 1,4
19.01.2018 05:00:00 6,6 3,6 5,7 7,7 8,8 10 6 26 14 W 1016,8 15 0 0,2
19.01.2018 04:00:00 6,9 4,0 6,2 7,7 8,8 8 5 21 11 WZW 1016,6 20 0 0,0
19.01.2018 03:00:00 7,2 4,3 6,4 7,7 8,8 10 5 35 19 W 1016,9 20 0 0,0
19.01.2018 02:00:00 7,8 4,7 6,8 7,7 8,8 14 8 34 19 W 1016,3 20 0 0,0
19.01.2018 01:00:00 8,4 6,0 7,5 7,6 8,8 15 8 41 22 W 1015,9 20 0 0,0
19.01.2018 00:00:00 9,2 8,0 8,6 7,6 8,8 18 10 42 23 W 1015,1 11 0 0,6
18.01.2018 23:00:00 9,5 8,6 9,1 7,6 8,8 5 3 27 15 W 1014,3 4,7 0 2,0
18.01.2018 22:00:00 10,1 8,4 9,0 7,5 8,8 15 8 34 18 WZW 1014,4 20 0 0,0
18.01.2018 21:00:00 9,9 8,5 9,0 7,5 8,8 12 6 40 22 WZW 1014,4 6 0 0,4
18.01.2018 20:00:00 9,8 8,4 8,9 7,5 8,8 16 9 39 21 WZW 1014,4 10 0 0,2
18.01.2018 19:00:00 9,6 8,2 8,8 7,4 8,8 14 8 40 22 ZW 1014,3 4,8 0 0,4
18.01.2018 18:00:00 9,5 8,1 8,8 7,3 8,8 14 7 43 23 ZW 1014,2 3,3 0 0,6
18.01.2018 17:00:00 9,5 7,9 8,9 7,3 8,8 16 9 44 24 ZW 1014,3 2,9 0 0,6
18.01.2018 16:00:00 9,7 8,0 9,5 7,3 8,8 15 8 40 22 ZW 1014,4 7 8 0,2
18.01.2018 15:00:00 9,7 7,1 9,3 7,2 8,8 19 10 48 26 ZW 1014,7 16 10 0,0
18.01.2018 14:00:00 9,2 7,3 9,2 7,2 8,8 15 8 38 21 ZW 1015,7 12 18 0,0
18.01.2018 13:00:00 9,1 7,0 8,6 7,2 8,8 13 7 49 27 ZW 1016,3 14 0 0,0
18.01.2018 12:00:00 8,6 6,4 8,4 7,2 8,8 18 10 45 24 ZW 1017,3 12 0 0,0
18.01.2018 11:00:00 8,0 6,3 7,3 7,2 8,8 18 10 39 21 ZW 1017,6 10 0 0,0
18.01.2018 10:00:00 7,5 6,0 6,6 7,2 8,8 13 7 41 22 ZW 1017,8 9 18 0,0
18.01.2018 09:00:00 7,2 5,3 6,2 7,2 8,8 17 9 39 21 ZZW 1017,8 14 0 0,0

tt = temperatuur
td = dauwpunt
tt 5cm = temperatuur 5cm
tt -20cm = temperatuur -20cm
tt -100cm = temperatuur -100cm
ff = windsnelheid
fx = windstoten
dd = windrichting
ppp = luchtdruk
vv = zicht
sd = Zonneschijnduur
rr = neerslag

Weerstations in de omgeving